| time (UTC) | temp C | wind direction | speed KPH | gust KPH | rain 1hr cm | rain 24hr cm | rain mn cm | humidity % | barometer mb |
| 20260502161333 | 12 | 306 | 9.7 | 12.9 | 0.00 | 0.00 | 0.00 | 39 | 1020.8 |
| 20260502160832 | 12 | 343 | 0.0 | 3.2 | 0.00 | 0.00 | 0.00 | 40 | 1020.8 |
| 20260502160330 | 12 | 59 | 6.4 | 9.7 | 0.00 | 0.00 | 0.00 | 39 | 1020.9 |
| 20260502152259 | 11 | 318 | 3.2 | 12.9 | 0.00 | 0.00 | 0.00 | 40 | 1020.8 |
| 20260502151756 | 11 | 327 | 8.0 | 11.3 | 0.00 | 0.00 | 0.00 | 44 | 1020.8 |
| 20260502151253 | 11 | 308 | 8.0 | 9.7 | 0.00 | 0.00 | 0.00 | 40 | 1020.7 |
| 20260502150752 | 11 | 26 | 3.2 | 9.7 | 0.00 | 0.00 | 0.00 | 44 | 1020.8 |
| 20260502150248 | 11 | 336 | 6.4 | 8.0 | 0.00 | 0.00 | 0.00 | 45 | 1021.1 |
| 20260502130636 | 5 | 343 | 0.0 | 3.2 | 0.00 | 0.00 | 0.00 | 79 | 1020.6 |
| 20260502130134 | 5 | 307 | 4.8 | 4.8 | 0.00 | 0.00 | 0.00 | 80 | 1020.8 |
| 20260502123620 | 3 | 322 | 3.2 | 3.2 | 0.00 | 0.00 | 0.00 | 84 | 1020.7 |
| 20260502123116 | 3 | 310 | 1.6 | 3.2 | 0.00 | 0.00 | 0.00 | 85 | 1020.9 |
| 20260502122613 | 3 | 308 | 1.6 | 3.2 | 0.00 | 0.00 | 0.00 | 87 | 1020.8 |
| 20260502122109 | 2 | 302 | 0.0 | 1.6 | 0.00 | 0.00 | 0.00 | 88 | 1020.7 |
| 20260502121608 | 2 | 299 | 1.6 | 3.2 | 0.00 | 0.00 | 0.00 | 88 | 1020.7 |
| 20260502121105 | 2 | 305 | 1.6 | 3.2 | 0.00 | 0.00 | 0.00 | 89 | 1020.5 |
| 20260502120600 | 2 | 303 | 0.0 | 1.6 | 0.00 | 0.00 | 0.00 | 88 | 1020.4 |
| 20260502115556 | 2 | 304 | 1.6 | 3.2 | 0.00 | 0.00 | 0.00 | 88 | 1020.3 |
| 20260502115051 | 2 | 304 | 1.6 | 3.2 | 0.00 | 0.00 | 0.00 | 88 | 1020.2 |
| 20260502114548 | 2 | 308 | 3.2 | 3.2 | 0.00 | 0.00 | 0.00 | 88 | 1020.1 |
| 20260502114045 | 2 | 307 | 1.6 | 1.6 | 0.00 | 0.00 | 0.00 | 89 | 1020.0 |
| 20260502113543 | 1 | 306 | 1.6 | 3.2 | 0.00 | 0.00 | 0.00 | 89 | 1020.2 |
| 20260502113041 | 1 | 306 | 1.6 | 3.2 | 0.00 | 0.00 | 0.00 | 89 | 1020.1 |
| 20260502112538 | 1 | 307 | 3.2 | 3.2 | 0.00 | 0.00 | 0.00 | 89 | 1019.8 |
| 20260502112036 | 2 | 305 | 1.6 | 3.2 | 0.00 | 0.00 | 0.00 | 88 | 1020.0 |
| 20260502111533 | 1 | 306 | 1.6 | 3.2 | 0.00 | 0.00 | 0.00 | 88 | 1019.7 |
| 20260502111030 | 1 | 302 | 3.2 | 4.8 | 0.00 | 0.00 | 0.00 | 88 | 1019.9 |
| 20260502110527 | 2 | 305 | 3.2 | 4.8 | 0.00 | 0.00 | 0.00 | 88 | 1019.9 |
| 20260502110025 | 2 | 305 | 1.6 | 3.2 | 0.00 | 0.00 | 0.00 | 87 | 1019.8 |
| 20260502105522 | 2 | 305 | 1.6 | 4.8 | 0.00 | 0.00 | 0.00 | 87 | 1019.9 |
| 20260502105020 | 2 | 305 | 1.6 | 1.6 | 0.00 | 0.00 | 0.00 | 87 | 1019.8 |
| 20260502104517 | 2 | 305 | 1.6 | 1.6 | 0.00 | 0.00 | 0.00 | 87 | 1019.7 |
| 20260502104014 | 2 | 305 | 1.6 | 3.2 | 0.00 | 0.00 | 0.00 | 87 | 1019.6 |
| 20260502103506 | 2 | 305 | 1.6 | 1.6 | 0.00 | 0.00 | 0.00 | 87 | 1019.6 |
| 20260502103004 | 2 | 308 | 3.2 | 3.2 | 0.00 | 0.00 | 0.00 | 86 | 1019.7 |
| 20260502102500 | 2 | 302 | 1.6 | 3.2 | 0.00 | 0.00 | 0.00 | 87 | 1019.6 |
| 20260502101956 | 2 | 302 | 1.6 | 3.2 | 0.00 | 0.00 | 0.00 | 87 | 1019.5 |
| 20260502101455 | 2 | 302 | 1.6 | 1.6 | 0.00 | 0.00 | 0.00 | 86 | 1019.5 |
| 20260502100953 | 2 | 302 | 1.6 | 3.2 | 0.00 | 0.00 | 0.00 | 86 | 1019.7 |
| 20260502100451 | 2 | 302 | 1.6 | 3.2 | 0.00 | 0.00 | 0.00 | 86 | 1019.7 |
| 20260502091426 | 3 | 308 | 1.6 | 1.6 | 0.00 | 0.00 | 0.00 | 84 | 1019.5 |
| 20260502090923 | 3 | 307 | 0.0 | 1.6 | 0.00 | 0.00 | 0.00 | 84 | 1019.5 |
| 20260502090420 | 3 | 307 | 0.0 | 1.6 | 0.00 | 0.00 | 0.00 | 84 | 1019.4 |
| 20260502071303 | 5 | 309 | 1.6 | 1.6 | 0.00 | 0.00 | 0.00 | 75 | 1019.3 |
| 20260502070801 | 5 | 305 | 1.6 | 1.6 | 0.00 | 0.00 | 0.00 | 75 | 1019.4 |
| 20260502070258 | 5 | 342 | 1.6 | 1.6 | 0.00 | 0.00 | 0.00 | 75 | 1019.5 |
| 20260502065757 | 5 | 343 | 0.0 | 0.0 | 0.00 | 0.00 | 0.00 | 76 | 1019.7 |
| 20260502065255 | 5 | 343 | 0.0 | 1.6 | 0.00 | 0.00 | 0.00 | 76 | 1019.3 |
| 20260502064752 | 5 | 343 | 0.0 | 1.6 | 0.00 | 0.00 | 0.00 | 76 | 1019.4 |
| 20260502064250 | 5 | 343 | 0.0 | 1.6 | 0.00 | 0.00 | 0.00 | 76 | 1019.6 |
| 20260502063747 | 5 | 343 | 0.0 | 1.6 | 0.00 | 0.00 | 0.00 | 75 | 1019.5 |
| 20260502063245 | 6 | 343 | 1.6 | 1.6 | 0.00 | 0.00 | 0.00 | 73 | 1019.5 |
| 20260502062742 | 6 | 344 | 1.6 | 1.6 | 0.00 | 0.00 | 0.00 | 72 | 1019.6 |
| 20260502062240 | 6 | 344 | 1.6 | 1.6 | 0.00 | 0.00 | 0.00 | 70 | 1019.7 |
| 20260502061738 | 6 | 345 | 1.6 | 1.6 | 0.00 | 0.00 | 0.00 | 67 | 1019.6 |
| 20260502061235 | 7 | 346 | 1.6 | 4.8 | 0.00 | 0.00 | 0.00 | 65 | 1019.7 |
| 20260502060730 | 7 | 346 | 4.8 | 4.8 | 0.00 | 0.00 | 0.00 | 66 | 1019.5 |
| 20260502060226 | 7 | 344 | 0.0 | 3.2 | 0.00 | 0.00 | 0.00 | 66 | 1019.6 |
| 20260502055724 | 7 | 343 | 1.6 | 3.2 | 0.00 | 0.00 | 0.00 | 66 | 1019.4 |
| 20260502055221 | 7 | 342 | 1.6 | 3.2 | 0.00 | 0.00 | 0.00 | 65 | 1019.5 |
| 20260502054720 | 7 | 342 | 1.6 | 3.2 | 0.00 | 0.00 | 0.00 | 66 | 1019.3 |
| 20260502054212 | 7 | 341 | 1.6 | 3.2 | 0.00 | 0.00 | 0.00 | 65 | 1019.4 |
| 20260502053710 | 7 | 340 | 3.2 | 3.2 | 0.00 | 0.00 | 0.00 | 64 | 1019.3 |
| 20260502053207 | 7 | 342 | 1.6 | 3.2 | 0.00 | 0.00 | 0.00 | 63 | 1019.3 |
| 20260502052705 | 7 | 335 | 1.6 | 4.8 | 0.00 | 0.00 | 0.00 | 64 | 1019.3 |
| 20260502052203 | 7 | 335 | 0.0 | 3.2 | 0.00 | 0.00 | 0.00 | 63 | 1019.1 |
| 20260502051700 | 7 | 335 | 1.6 | 1.6 | 0.00 | 0.00 | 0.00 | 63 | 1019.1 |
| 20260502051158 | 7 | 335 | 3.2 | 3.2 | 0.00 | 0.00 | 0.00 | 63 | 1019.3 |
| 20260502050654 | 7 | 334 | 0.0 | 1.6 | 0.00 | 0.00 | 0.00 | 64 | 1019.3 |
| 20260502050151 | 7 | 334 | 1.6 | 1.6 | 0.00 | 0.00 | 0.00 | 66 | 1019.2 |
| 20260502045647 | 7 | 335 | 1.6 | 3.2 | 0.00 | 0.00 | 0.00 | 65 | 1019.2 |
| 20260502045145 | 7 | 333 | 0.0 | 0.0 | 0.00 | 0.00 | 0.00 | 65 | 1019.2 |
| 20260502044641 | 8 | 333 | 0.0 | 0.0 | 0.00 | 0.00 | 0.00 | 64 | 1019.3 |
| 20260502044137 | 8 | 333 | 0.0 | 1.6 | 0.00 | 0.00 | 0.00 | 62 | 1019.3 |
| 20260502043635 | 8 | 333 | 1.6 | 1.6 | 0.00 | 0.00 | 0.00 | 61 | 1019.2 |
| 20260502043133 | 8 | 333 | 1.6 | 1.6 | 0.00 | 0.00 | 0.00 | 60 | 1019.2 |
| 20260502042626 | 8 | 332 | 1.6 | 1.6 | 0.00 | 0.00 | 0.00 | 59 | 1019.1 |
| 20260502042123 | 8 | 331 | 0.0 | 3.2 | 0.00 | 0.00 | 0.00 | 59 | 1019.1 |
| 20260502041621 | 8 | 331 | 1.6 | 3.2 | 0.00 | 0.00 | 0.00 | 59 | 1019.1 |
| 20260502041118 | 8 | 331 | 0.0 | 1.6 | 0.00 | 0.00 | 0.00 | 60 | 1019.2 |
| 20260502040615 | 8 | 331 | 1.6 | 1.6 | 0.00 | 0.00 | 0.00 | 60 | 1019.1 |
| 20260502040112 | 8 | 331 | 1.6 | 1.6 | 0.00 | 0.00 | 0.00 | 61 | 1019.1 |
| 20260502035608 | 8 | 331 | 0.0 | 0.0 | 0.00 | 0.00 | 0.00 | 62 | 1019.2 |
| 20260502035105 | 8 | 331 | 0.0 | 0.0 | 0.00 | 0.00 | 0.00 | 62 | 1019.0 |
| 20260502034603 | 8 | 331 | 0.0 | 0.0 | 0.00 | 0.00 | 0.00 | 62 | 1018.9 |
| 20260502034101 | 9 | 331 | 0.0 | 1.6 | 0.00 | 0.00 | 0.00 | 60 | 1019.1 |
| 20260502033559 | 9 | 334 | 3.2 | 3.2 | 0.00 | 0.00 | 0.00 | 59 | 1019.2 |
| 20260502033056 | 9 | 343 | 3.2 | 4.8 | 0.00 | 0.00 | 0.00 | 59 | 1019.1 |
| 20260502032552 | 10 | 342 | 1.6 | 3.2 | 0.00 | 0.00 | 0.00 | 59 | 1018.9 |
| 20260502032049 | 10 | 332 | 1.6 | 3.2 | 0.00 | 0.00 | 0.00 | 59 | 1018.9 |
| 20260502031547 | 9 | 330 | 3.2 | 3.2 | 0.00 | 0.00 | 0.00 | 59 | 1018.8 |
| 20260502031044 | 9 | 329 | 0.0 | 1.6 | 0.00 | 0.00 | 0.00 | 59 | 1018.9 |
| 20260502030543 | 10 | 329 | 0.0 | 1.6 | 0.00 | 0.00 | 0.00 | 60 | 1018.9 |
| 20260502030040 | 10 | 329 | 0.0 | 1.6 | 0.00 | 0.00 | 0.00 | 58 | 1018.7 |
| 20260502025538 | 10 | 329 | 1.6 | 1.6 | 0.00 | 0.00 | 0.00 | 57 | 1018.7 |
| 20260502025036 | 10 | 329 | 1.6 | 1.6 | 0.00 | 0.00 | 0.00 | 57 | 1018.7 |
| 20260502024532 | 10 | 329 | 0.0 | 1.6 | 0.00 | 0.00 | 0.00 | 57 | 1018.7 |
| 20260502024031 | 10 | 331 | 3.2 | 3.2 | 0.00 | 0.00 | 0.00 | 56 | 1018.7 |
| 20260502023528 | 10 | 343 | 3.2 | 3.2 | 0.00 | 0.00 | 0.00 | 56 | 1018.7 |
| 20260502023026 | 10 | 343 | 3.2 | 4.8 | 0.00 | 0.00 | 0.00 | 55 | 1018.5 |
| 20260502022522 | 10 | 349 | 1.6 | 3.2 | 0.00 | 0.00 | 0.00 | 54 | 1018.5 |
| 20260502022020 | 10 | 337 | 1.6 | 1.6 | 0.00 | 0.00 | 0.00 | 55 | 1018.4 |
| 20260502021517 | 10 | 335 | 3.2 | 4.8 | 0.00 | 0.00 | 0.00 | 54 | 1018.5 |
| 20260502021014 | 10 | 1 | 3.2 | 8.0 | 0.00 | 0.00 | 0.00 | 54 | 1018.2 |
| 20260502020512 | 10 | 9 | 6.4 | 9.7 | 0.00 | 0.00 | 0.00 | 52 | 1018.1 |
| 20260502020009 | 10 | 356 | 3.2 | 8.0 | 0.00 | 0.00 | 0.00 | 53 | 1017.9 |
| 20260502015507 | 10 | 6 | 3.2 | 8.0 | 0.00 | 0.00 | 0.00 | 53 | 1017.8 |
| 20260502015003 | 10 | 7 | 6.4 | 9.7 | 0.00 | 0.00 | 0.00 | 53 | 1017.9 |
| 20260502014459 | 10 | 355 | 8.0 | 9.7 | 0.00 | 0.00 | 0.00 | 52 | 1017.9 |
| 20260502013956 | 10 | 344 | 4.8 | 8.0 | 0.00 | 0.00 | 0.00 | 54 | 1017.8 |
| 20260502013452 | 11 | 356 | 3.2 | 11.3 | 0.00 | 0.00 | 0.00 | 54 | 1017.7 |
| 20260502012948 | 10 | 357 | 4.8 | 8.0 | 0.00 | 0.00 | 0.00 | 53 | 1017.9 |
| 20260502012446 | 11 | 337 | 4.8 | 8.0 | 0.00 | 0.00 | 0.00 | 52 | 1017.6 |
| 20260502011944 | 11 | 342 | 4.8 | 8.0 | 0.00 | 0.00 | 0.00 | 52 | 1017.5 |
| 20260502011439 | 11 | 353 | 4.8 | 9.7 | 0.00 | 0.00 | 0.00 | 52 | 1017.6 |
| 20260502010937 | 11 | 349 | 4.8 | 9.7 | 0.00 | 0.00 | 0.00 | 52 | 1017.3 |
| 20260502010433 | 11 | 19 | 6.4 | 8.0 | 0.00 | 0.00 | 0.00 | 51 | 1017.3 |
| 20260502005929 | 11 | 351 | 4.8 | 9.7 | 0.00 | 0.00 | 0.00 | 51 | 1017.3 |
| 20260502005427 | 11 | 0 | 9.7 | 11.3 | 0.00 | 0.00 | 0.00 | 50 | 1017.2 |
| 20260502004926 | 11 | 347 | 4.8 | 11.3 | 0.00 | 0.00 | 0.00 | 50 | 1017.1 |
| 20260502004421 | 11 | 1 | 4.8 | 11.3 | 0.00 | 0.00 | 0.00 | 50 | 1017.2 |
| 20260502003918 | 11 | 15 | 6.4 | 11.3 | 0.00 | 0.00 | 0.00 | 49 | 1017.1 |
| 20260502003416 | 12 | 23 | 8.0 | 12.9 | 0.00 | 0.00 | 0.00 | 48 | 1017.1 |
| 20260502002912 | 12 | 3 | 8.0 | 9.7 | 0.00 | 0.00 | 0.00 | 49 | 1017.0 |
| 20260502002409 | 12 | 12 | 8.0 | 11.3 | 0.00 | 0.00 | 0.00 | 47 | 1016.9 |
| 20260502001906 | 12 | 29 | 3.2 | 8.0 | 0.00 | 0.00 | 0.00 | 48 | 1016.9 |
| 20260502001404 | 12 | 334 | 9.7 | 12.9 | 0.00 | 0.00 | 0.00 | 47 | 1016.9 |
| 20260502000901 | 12 | 8 | 4.8 | 12.9 | 0.00 | 0.00 | 0.00 | 47 | 1016.8 |
| 20260502000402 | 12 | 13 | 3.2 | 11.3 | 0.00 | 0.00 | 0.00 | 48 | 1016.7 |
| 20260501235855 | 12 | 22 | 8.0 | 17.7 | 0.00 | 0.00 | 0.00 | 46 | 1016.8 |
| 20260501235351 | 12 | 358 | 6.4 | 12.9 | 0.00 | 0.00 | 0.00 | 46 | 1016.7 |
| 20260501234846 | 12 | 13 | 9.7 | 14.5 | 0.00 | 0.00 | 0.00 | 47 | 1016.7 |
| 20260501234343 | 12 | 1 | 8.0 | 12.9 | 0.00 | 0.00 | 0.00 | 46 | 1016.8 |
| 20260501233842 | 12 | 10 | 8.0 | 14.5 | 0.00 | 0.00 | 0.00 | 46 | 1016.6 |
| 20260501233339 | 12 | 356 | 6.4 | 16.1 | 0.00 | 0.00 | 0.00 | 46 | 1016.7 |
| 20260501232834 | 12 | 10 | 4.8 | 9.7 | 0.00 | 0.00 | 0.00 | 46 | 1016.6 |
| 20260501232332 | 12 | 353 | 8.0 | 17.7 | 0.00 | 0.00 | 0.00 | 44 | 1016.7 |
| 20260501231829 | 12 | 7 | 12.9 | 16.1 | 0.00 | 0.00 | 0.00 | 44 | 1016.8 |
| 20260501231327 | 12 | 352 | 9.7 | 14.5 | 0.00 | 0.00 | 0.00 | 44 | 1016.7 |
| 20260501230825 | 12 | 35 | 6.4 | 17.7 | 0.00 | 0.00 | 0.00 | 45 | 1016.7 |
| 20260501230324 | 13 | 1 | 12.9 | 16.1 | 0.00 | 0.00 | 0.00 | 46 | 1016.7 |
| 20260501225821 | 13 | 0 | 8.0 | 11.3 | 0.00 | 0.00 | 0.00 | 45 | 1016.6 |
| 20260501225319 | 13 | 316 | 8.0 | 24.1 | 0.00 | 0.00 | 0.00 | 43 | 1016.8 |
| 20260501224815 | 13 | 300 | 8.0 | 16.1 | 0.00 | 0.00 | 0.00 | 43 | 1016.8 |
| 20260501224312 | 12 | 13 | 8.0 | 14.5 | 0.00 | 0.00 | 0.00 | 44 | 1016.7 |
| 20260501223808 | 12 | 332 | 6.4 | 14.5 | 0.00 | 0.00 | 0.00 | 44 | 1016.7 |
| 20260501223304 | 12 | 346 | 9.7 | 17.7 | 0.00 | 0.00 | 0.00 | 44 | 1016.8 |
| 20260501222800 | 13 | 343 | 9.7 | 17.7 | 0.00 | 0.00 | 0.00 | 43 | 1016.8 |
| 20260501222258 | 13 | 61 | 11.3 | 16.1 | 0.00 | 0.00 | 0.00 | 43 | 1016.8 |
| 20260501221755 | 13 | 6 | 11.3 | 22.5 | 0.00 | 0.00 | 0.00 | 44 | 1016.5 |
| 20260501221252 | 13 | 3 | 8.0 | 20.9 | 0.00 | 0.00 | 0.00 | 43 | 1016.7 |
| 20260501220750 | 13 | 6 | 11.3 | 16.1 | 0.00 | 0.00 | 0.00 | 43 | 1016.6 |
| 20260501220247 | 14 | 309 | 3.2 | 11.3 | 0.00 | 0.00 | 0.00 | 42 | 1016.7 |
| 20260501215744 | 13 | 332 | 4.8 | 9.7 | 0.00 | 0.00 | 0.00 | 44 | 1016.8 |
| 20260501215239 | 13 | 358 | 11.3 | 16.1 | 0.00 | 0.00 | 0.00 | 45 | 1016.8 |
| 20260501214734 | 13 | 34 | 9.7 | 20.9 | 0.00 | 0.00 | 0.00 | 44 | 1016.6 |
| 20260501214231 | 13 | 27 | 6.4 | 11.3 | 0.00 | 0.00 | 0.00 | 47 | 1016.7 |
| 20260501213727 | 13 | 30 | 8.0 | 12.9 | 0.00 | 0.00 | 0.00 | 44 | 1016.5 |
| 20260501213223 | 14 | 281 | 8.0 | 14.5 | 0.00 | 0.00 | 0.00 | 42 | 1016.7 |
| 20260501212719 | 14 | 49 | 11.3 | 17.7 | 0.00 | 0.00 | 0.00 | 44 | 1016.6 |
| 20260501212216 | 13 | 335 | 11.3 | 14.5 | 0.00 | 0.00 | 0.00 | 47 | 1016.7 |
| 20260501211713 | 13 | 358 | 6.4 | 11.3 | 0.00 | 0.00 | 0.00 | 46 | 1016.9 |
| 20260501211210 | 13 | 333 | 11.3 | 12.9 | 0.00 | 0.00 | 0.00 | 45 | 1016.9 |
| 20260501210707 | 12 | 31 | 11.3 | 14.5 | 0.00 | 0.00 | 0.00 | 46 | 1016.9 |
| 20260501210204 | 13 | 16 | 8.0 | 20.9 | 0.00 | 0.00 | 0.00 | 47 | 1016.8 |
| 20260501205700 | 13 | 341 | 9.7 | 16.1 | 0.00 | 0.00 | 0.00 | 49 | 1017.0 |
| 20260501205157 | 13 | 352 | 11.3 | 17.7 | 0.00 | 0.00 | 0.00 | 46 | 1016.8 |
| 20260501204654 | 12 | 359 | 12.9 | 20.9 | 0.00 | 0.00 | 0.00 | 48 | 1017.0 |
| 20260501204150 | 12 | 320 | 11.3 | 16.1 | 0.00 | 0.00 | 0.00 | 48 | 1016.9 |
| 20260501203647 | 12 | 1 | 12.9 | 16.1 | 0.00 | 0.00 | 0.00 | 47 | 1017.1 |
| 20260501203145 | 13 | 22 | 12.9 | 17.7 | 0.00 | 0.00 | 0.00 | 48 | 1017.1 |
| 20260501202641 | 13 | 346 | 19.3 | 29.0 | 0.00 | 0.00 | 0.00 | 46 | 1017.1 |
| 20260501202138 | 13 | 16 | 4.8 | 14.5 | 0.00 | 0.00 | 0.00 | 47 | 1017.1 |
| 20260501201635 | 13 | 30 | 16.1 | 22.5 | 0.00 | 0.00 | 0.00 | 48 | 1017.1 |
| 20260501201131 | 13 | 30 | 6.4 | 17.7 | 0.00 | 0.00 | 0.00 | 48 | 1017.0 |
| 20260501200628 | 13 | 2 | 9.7 | 14.5 | 0.00 | 0.00 | 0.00 | 45 | 1016.9 |
| 20260501200126 | 13 | 12 | 11.3 | 16.1 | 0.00 | 0.00 | 0.00 | 45 | 1017.0 |
| 20260501195623 | 13 | 19 | 11.3 | 16.1 | 0.00 | 0.00 | 0.00 | 48 | 1017.0 |
| 20260501195119 | 13 | 325 | 6.4 | 8.0 | 0.00 | 0.00 | 0.00 | 51 | 1017.0 |
| 20260501194614 | 13 | 20 | 8.0 | 16.1 | 0.00 | 0.00 | 0.00 | 51 | 1017.1 |
| 20260501194110 | 12 | 345 | 8.0 | 14.5 | 0.00 | 0.00 | 0.00 | 51 | 1017.1 |
| 20260501193608 | 12 | 31 | 8.0 | 12.9 | 0.00 | 0.00 | 0.00 | 51 | 1017.2 |
| 20260501193107 | 12 | 356 | 12.9 | 16.1 | 0.00 | 0.00 | 0.00 | 56 | 1017.0 |
| 20260501192603 | 12 | 8 | 17.7 | 17.7 | 0.00 | 0.00 | 0.00 | 56 | 1017.1 |
| 20260501192101 | 13 | 326 | 6.4 | 17.7 | 0.00 | 0.00 | 0.00 | 53 | 1017.0 |
| 20260501191557 | 12 | 303 | 11.3 | 20.9 | 0.00 | 0.00 | 0.00 | 53 | 1017.1 |
| 20260501191055 | 13 | 295 | 3.2 | 16.1 | 0.00 | 0.00 | 0.00 | 52 | 1016.9 |
| 20260501190550 | 13 | 340 | 4.8 | 14.5 | 0.00 | 0.00 | 0.00 | 56 | 1016.9 |
| 20260501190046 | 13 | 315 | 8.0 | 14.5 | 0.00 | 0.00 | 0.00 | 58 | 1017.1 |
| 20260501185542 | 12 | 297 | 3.2 | 11.3 | 0.00 | 0.00 | 0.00 | 55 | 1017.1 |
| 20260501185038 | 12 | 315 | 3.2 | 3.2 | 0.00 | 0.00 | 0.00 | 54 | 1016.8 |
| 20260501184535 | 12 | 281 | 3.2 | 4.8 | 0.00 | 0.00 | 0.00 | 52 | 1016.8 |
| 20260501184034 | 11 | 296 | 3.2 | 16.1 | 0.00 | 0.00 | 0.00 | 51 | 1017.0 |
| 20260501183532 | 12 | 330 | 8.0 | 16.1 | 0.00 | 0.00 | 0.00 | 52 | 1016.8 |
| 20260501183028 | 12 | 6 | 19.3 | 27.4 | 0.00 | 0.00 | 0.00 | 56 | 1016.7 |
| 20260501182525 | 12 | 14 | 19.3 | 32.2 | 0.00 | 0.00 | 0.00 | 55 | 1016.7 |
| 20260501182022 | 13 | 7 | 11.3 | 22.5 | 0.00 | 0.00 | 0.00 | 54 | 1016.6 |
| 20260501181519 | 13 | 21 | 9.7 | 20.9 | 0.00 | 0.00 | 0.00 | 56 | 1016.6 |
| 20260501181016 | 12 | 317 | 9.7 | 20.9 | 0.00 | 0.00 | 0.00 | 58 | 1016.3 |
| 20260501180514 | 12 | 322 | 8.0 | 20.9 | 0.00 | 0.00 | 0.00 | 56 | 1016.6 |
| 20260501180009 | 13 | 302 | 4.8 | 9.7 | 0.00 | 0.00 | 0.00 | 48 | 1016.4 |
| 20260501175506 | 13 | 13 | 14.5 | 20.9 | 0.00 | 0.00 | 0.00 | 49 | 1016.5 |
| 20260501175003 | 13 | 33 | 6.4 | 11.3 | 0.00 | 0.00 | 0.00 | 52 | 1016.5 |
| 20260501174500 | 13 | 15 | 11.3 | 14.5 | 0.00 | 0.00 | 0.00 | 53 | 1016.5 |
| 20260501173958 | 13 | 2 | 4.8 | 8.0 | 0.00 | 0.00 | 0.00 | 50 | 1016.6 |
| 20260501173455 | 12 | 347 | 6.4 | 9.7 | 0.00 | 0.00 | 0.00 | 51 | 1016.6 |
| 20260501172951 | 13 | 311 | 11.3 | 16.1 | 0.00 | 0.00 | 0.00 | 50 | 1016.5 |
| 20260501172447 | 13 | 11 | 11.3 | 12.9 | 0.00 | 0.00 | 0.00 | 51 | 1016.7 |
| 20260501171942 | 12 | 356 | 6.4 | 16.1 | 0.00 | 0.00 | 0.00 | 53 | 1016.5 |
| 20260501171439 | 12 | 335 | 9.7 | 16.1 | 0.00 | 0.00 | 0.00 | 52 | 1016.7 |
| 20260501170935 | 12 | 23 | 8.0 | 16.1 | 0.00 | 0.00 | 0.00 | 51 | 1016.6 |
| 20260501170432 | 12 | 328 | 8.0 | 17.7 | 0.00 | 0.00 | 0.00 | 50 | 1016.8 |
| 20260501165930 | 13 | 316 | 1.6 | 3.2 | 0.00 | 0.00 | 0.00 | 48 | 1016.5 |
| 20260501165428 | 12 | 336 | 8.0 | 11.3 | 0.00 | 0.00 | 0.00 | 50 | 1016.6 |
| 20260501164925 | 12 | 297 | 11.3 | 17.7 | 0.00 | 0.00 | 0.00 | 50 | 1016.4 |
| 20260501164423 | 13 | 279 | 6.4 | 9.7 | 0.00 | 0.00 | 0.00 | 49 | 1016.4 |
| 20260501163919 | 13 | 303 | 14.5 | 16.1 | 0.00 | 0.00 | 0.00 | 48 | 1016.5 |
| 20260501163415 | 13 | 54 | 6.4 | 9.7 | 0.00 | 0.00 | 0.00 | 48 | 1016.5 |
| 20260501162912 | 12 | 14 | 1.6 | 12.9 | 0.00 | 0.00 | 0.00 | 49 | 1016.5 |
| 20260501162409 | 12 | 0 | 6.4 | 8.0 | 0.00 | 0.00 | 0.00 | 51 | 1016.7 |
| 20260501161906 | 12 | 352 | 11.3 | 17.7 | 0.00 | 0.00 | 0.00 | 50 | 1016.6 |